Location: Geremba
(10.4250°N, 67.2394°W)
Time: 11:28:31
(UTC+00:00)

COSMOS 2455 - Pass Details

Date: 23 May 2024
Orbit: 898 x 911 km, 67.1° (Epoch: 25 June)

Event Time Altitude Azimuth Distance (km) Brightness Sun altitude
Exits shadow 08:07:41 68° 296° (WNW) 967 2.7 -27.2°
Drops below altitude 10° 08:13:32 10° 13° (NNE) 2,576 5.7 -26.0°
Sets 08:16:03 0° 16° (NNE) 3,518 6.6 -25.4°
